Auburn, AL

2:08 PM CST on December 05, 2019 (GMT -0600)
Auburn-opelika-pitts

Weather History for KAUO - November, 2019

Change the Weather History Date:

Saturday, November 16, 2019

  Actual Average Record
Temperature  
Mean Temperature 53 °F -  
Max Temperature 66 °F - 80 °F (1985)
Min Temperature 39 °F - 20 °F (1963)
Degree Days  
Heating Degree Days 12    
Month to date heating degree days 223  
Since 1 July heating degree days 274  
Growing Degree Days 2 (Base 50)    
Moisture  
Dew Point 39 °F    
Average Humidity 67    
Maximum Humidity 93    
Minimum Humidity 37    
Precipitation  
Precipitation 0.00 in - 1.38 in (2005)
Month to date precipitation 2.63  
Year to date precipitation 35.58  
Sea Level Pressure  
Sea Level Pressure 30.14 in    
Wind  
Wind Speed 8 mph (North)    
Max Wind Speed 14 mph    
Max Gust Speed 20 mph    
Visibility 10 miles    
Events      
T = Trace of Precipitation, MM = Missing Value Source: NWS Daily Summary

Daily Weather History Graph

Daily Weather History Graph

Search for Another Location

Airport or City:

Astronomy

Nov. 16, 2019 Rise Set
Actual Time 6:12 AM CST 4:40 PM CST
Civil Twilight 5:46 AM CST 5:06 PM CST
Nautical Twilight 5:16 AM CST 5:36 PM CST
Astronomical Twilight 4:47 AM CST 6:05 PM CST
Moon 8:18 PM CST (11/16) 9:59 AM CST (11/16)
Length of Visible Light 11h 20m
Length of Day
10h 28m
Waning Gibbous, 82% of the Moon is Illuminated
Nov 16
Waning Gibbous
Nov 19
Last Quarter
Nov 26
New
Dec 4
First Quarter
Dec 11
Full

Hourly Weather History & Observations

Time (CST) Temp. Windchill Dew Point Humidity Pressure Visibility Wind Dir Wind Speed Gust Speed Precip Events Conditions
12:56 AM 43.0 °F 37.7 °F 41.0 °F 93% 30.14 in 10.0 mi NNW 9.2 mph - N/A   Overcast
1:56 AM 42.1 °F 37.1 °F 39.9 °F 92% 30.14 in 10.0 mi NNW 8.1 mph - N/A   Mostly Cloudy
2:56 AM 42.1 °F 36.1 °F 39.0 °F 89% 30.13 in 10.0 mi North 10.4 mph - N/A   Overcast
3:56 AM 39.9 °F 33.4 °F 37.0 °F 89% 30.13 in 10.0 mi NNW 10.4 mph - N/A   Clear
4:56 AM 39.9 °F 32.9 °F 36.0 °F 86% 30.13 in 10.0 mi North 11.5 mph - N/A   Scattered Clouds
5:56 AM 39.0 °F 32.3 °F 35.1 °F 86% 30.16 in 10.0 mi North 10.4 mph - N/A   Partly Cloudy
6:56 AM 41.0 °F 35.2 °F 36.0 °F 82% 30.17 in 10.0 mi North 9.2 mph - N/A   Overcast
7:56 AM 42.1 °F 36.1 °F 36.0 °F 79% 30.17 in 10.0 mi North 10.4 mph - N/A   Mostly Cloudy
8:56 AM 48.0 °F - 37.9 °F 68% 30.18 in 10.0 mi North 9.2 mph - N/A   Clear
9:56 AM 55.9 °F - 39.9 °F 55% 30.18 in 10.0 mi NNE 6.9 mph - N/A   Clear
10:56 AM 60.1 °F - 34.0 °F 38% 30.16 in 10.0 mi NNE 11.5 mph - N/A   Clear
11:56 AM 63.0 °F - 37.0 °F 38% 30.12 in 10.0 mi NNE 13.8 mph 19.6 mph N/A   Clear
12:56 PM 64.0 °F - 37.0 °F 37% 30.09 in 10.0 mi NNE 12.7 mph - N/A   Clear
2:56 PM 64.9 °F - 39.0 °F 39% 30.10 in 10.0 mi North 5.8 mph - N/A   Clear
3:56 PM 64.0 °F - 39.9 °F 41% 30.10 in 10.0 mi NNE 4.6 mph - N/A   Clear
4:56 PM 59.0 °F - 43.0 °F 55% 30.12 in 10.0 mi North 3.5 mph - N/A   Clear
5:56 PM 55.9 °F - 42.1 °F 60% 30.12 in 10.0 mi NNE 5.8 mph - N/A   Clear
6:56 PM 52.0 °F - 42.1 °F 69% 30.14 in 10.0 mi North 4.6 mph - N/A   Clear
7:56 PM 51.1 °F - 39.9 °F 66% 30.15 in 10.0 mi North 5.8 mph - N/A   Scattered Clouds
8:56 PM 48.9 °F - 39.9 °F 71% 30.16 in 10.0 mi NNE 5.8 mph - N/A   Clear
9:56 PM 48.0 °F - 39.0 °F 71% 30.15 in 10.0 mi NNE 6.9 mph - N/A   Clear
10:56 PM 46.9 °F - 39.0 °F 74% 30.14 in 10.0 mi North 6.9 mph - N/A   Clear